| time (UTC) | temp F | wind direction | speed knots | gust knots | rain 1hr in | rain 24hr in | rain mn in | humidity % | barometer mb |
| 20260506002502 | 82 | 239 | 1.7 | 4.3 | 0.01 | 0.01 | 0.01 | 80 | 1005.0 |
| 20260506002001 | 82 | 194 | 1.7 | 7.0 | 0.00 | 0.00 | 0.00 | 80 | 1004.8 |
| 20260506001502 | 82 | 185 | 2.6 | 7.8 | 0.00 | 0.00 | 0.00 | 79 | 1004.8 |
| 20260506001002 | 83 | 183 | 2.6 | 7.8 | 0.00 | 0.00 | 0.00 | 79 | 1004.7 |
| 20260506000501 | 83 | 174 | 2.6 | 7.8 | 0.00 | 0.00 | 0.00 | 76 | 1004.2 |
| 20260506000002 | 83 | 169 | 2.6 | 6.1 | 0.00 | 0.00 | 0.00 | 76 | 1004.2 |
| 20260505235501 | 84 | 173 | 3.5 | 9.6 | 0.00 | 0.00 | 0.00 | 76 | 1003.9 |
| 20260505235001 | 84 | 174 | 3.5 | 10.4 | 0.00 | 0.00 | 0.00 | 75 | 1003.8 |
| 20260505234502 | 84 | 186 | 4.3 | 10.4 | 0.00 | 0.00 | 0.00 | 75 | 1004.0 |
| 20260505233002 | 86 | 181 | 4.3 | 10.4 | 0.00 | 0.00 | 0.00 | 73 | 1004.2 |
| 20260505232501 | 86 | 178 | 3.5 | 10.4 | 0.00 | 0.00 | 0.00 | 72 | 1004.0 |
| 20260505231502 | 87 | 185 | 2.6 | 7.8 | 0.00 | 0.00 | 0.00 | 71 | 1004.1 |
| 20260505231001 | 88 | 181 | 3.5 | 7.8 | 0.00 | 0.00 | 0.00 | 70 | 1004.1 |
| 20260505230502 | 88 | 187 | 4.3 | 8.7 | 0.00 | 0.00 | 0.00 | 69 | 1003.9 |
| 20260505230002 | 88 | 193 | 3.5 | 8.7 | 0.00 | 0.00 | 0.00 | 69 | 1003.9 |
| 20260505225501 | 88 | 186 | 3.5 | 9.6 | 0.00 | 0.00 | 0.00 | 69 | 1003.7 |
| 20260505225002 | 88 | 173 | 3.5 | 9.6 | 0.00 | 0.00 | 0.00 | 69 | 1003.9 |
| 20260505224502 | 88 | 172 | 3.5 | 10.4 | 0.00 | 0.00 | 0.00 | 69 | 1003.9 |
| 20260505224002 | 89 | 171 | 4.3 | 10.4 | 0.00 | 0.00 | 0.00 | 69 | 1003.7 |
| 20260505222502 | 89 | 190 | 3.5 | 11.3 | 0.00 | 0.00 | 0.00 | 69 | 1003.8 |
| 20260505222002 | 89 | 184 | 3.5 | 11.3 | 0.00 | 0.00 | 0.00 | 69 | 1003.8 |
| 20260505221502 | 89 | 183 | 4.3 | 11.3 | 0.00 | 0.00 | 0.00 | 68 | 1003.8 |
| 20260505221002 | 89 | 178 | 4.3 | 10.4 | 0.00 | 0.00 | 0.00 | 68 | 1003.6 |
| 20260505220502 | 89 | 183 | 3.5 | 9.6 | 0.00 | 0.00 | 0.00 | 68 | 1003.6 |
| 20260505220002 | 90 | 195 | 3.5 | 10.4 | 0.00 | 0.00 | 0.00 | 67 | 1003.7 |
| 20260505215502 | 89 | 191 | 4.3 | 10.4 | 0.00 | 0.00 | 0.00 | 67 | 1003.7 |
| 20260505215001 | 90 | 192 | 3.5 | 8.7 | 0.00 | 0.00 | 0.00 | 66 | 1003.7 |
| 20260505214502 | 90 | 195 | 3.5 | 8.7 | 0.00 | 0.00 | 0.00 | 67 | 1003.7 |
| 20260505214002 | 89 | 190 | 3.5 | 8.7 | 0.00 | 0.00 | 0.00 | 68 | 1003.8 |
| 20260505213501 | 89 | 179 | 3.5 | 9.6 | 0.00 | 0.00 | 0.00 | 67 | 1003.8 |
| 20260505213002 | 89 | 178 | 4.3 | 9.6 | 0.00 | 0.00 | 0.00 | 67 | 1003.8 |
| 20260505212002 | 89 | 196 | 4.3 | 11.3 | 0.00 | 0.00 | 0.00 | 67 | 1004.0 |
| 20260505211502 | 89 | 190 | 3.5 | 9.6 | 0.00 | 0.00 | 0.00 | 66 | 1004.0 |
| 20260505210002 | 90 | 181 | 3.5 | 7.8 | 0.00 | 0.00 | 0.00 | 66 | 1004.1 |
| 20260505205502 | 90 | 195 | 3.5 | 7.8 | 0.00 | 0.00 | 0.00 | 66 | 1004.2 |
| 20260505205003 | 90 | 203 | 3.5 | 7.8 | 0.00 | 0.00 | 0.00 | 64 | 1004.3 |
| 20260505204502 | 90 | 198 | 3.5 | 7.8 | 0.00 | 0.00 | 0.00 | 65 | 1004.4 |
| 20260505204001 | 89 | 204 | 3.5 | 7.8 | 0.00 | 0.00 | 0.00 | 67 | 1004.4 |
| 20260505203502 | 89 | 207 | 2.6 | 7.8 | 0.00 | 0.00 | 0.00 | 66 | 1004.4 |
| 20260505203002 | 88 | 202 | 3.5 | 11.3 | 0.00 | 0.00 | 0.00 | 69 | 1004.5 |
| 20260505202502 | 88 | 197 | 4.3 | 11.3 | 0.00 | 0.00 | 0.00 | 67 | 1004.5 |
| 20260505201501 | 88 | 199 | 4.3 | 11.3 | 0.00 | 0.00 | 0.00 | 66 | 1004.6 |
| 20260505201002 | 88 | 194 | 3.5 | 11.3 | 0.00 | 0.00 | 0.00 | 67 | 1004.6 |
| 20260505200502 | 88 | 189 | 4.3 | 8.7 | 0.00 | 0.00 | 0.00 | 68 | 1004.6 |
| 20260505200002 | 88 | 189 | 4.3 | 11.3 | 0.00 | 0.00 | 0.00 | 69 | 1004.7 |
| 20260505195502 | 88 | 199 | 3.5 | 11.3 | 0.00 | 0.00 | 0.00 | 67 | 1004.7 |
| 20260505195001 | 88 | 206 | 3.5 | 8.7 | 0.00 | 0.00 | 0.00 | 68 | 1004.6 |
| 20260505194502 | 87 | 193 | 4.3 | 13.9 | 0.00 | 0.00 | 0.00 | 70 | 1004.7 |
| 20260505194002 | 87 | 198 | 4.3 | 13.9 | 0.00 | 0.00 | 0.00 | 69 | 1004.7 |
| 20260505193502 | 86 | 198 | 4.3 | 13.0 | 0.00 | 0.00 | 0.00 | 70 | 1004.7 |
| 20260505193002 | 86 | 190 | 5.2 | 13.0 | 0.00 | 0.00 | 0.00 | 70 | 1004.8 |
| 20260505191502 | 85 | 194 | 5.2 | 13.9 | 0.00 | 0.00 | 0.00 | 70 | 1004.9 |
| 20260505191002 | 85 | 192 | 5.2 | 13.9 | 0.00 | 0.00 | 0.00 | 71 | 1004.9 |
| 20260505190502 | 85 | 194 | 4.3 | 12.2 | 0.00 | 0.00 | 0.00 | 71 | 1004.9 |
| 20260505190003 | 85 | 191 | 3.5 | 13.9 | 0.00 | 0.00 | 0.00 | 73 | 1005.0 |
| 20260505185502 | 84 | 191 | 4.3 | 13.9 | 0.00 | 0.00 | 0.00 | 72 | 1004.9 |
| 20260505185002 | 84 | 194 | 4.3 | 12.2 | 0.00 | 0.00 | 0.00 | 72 | 1005.1 |
| 20260505184502 | 84 | 198 | 4.3 | 10.4 | 0.00 | 0.00 | 0.00 | 73 | 1005.1 |
| 20260505184002 | 84 | 198 | 4.3 | 10.4 | 0.00 | 0.00 | 0.00 | 72 | 1005.1 |
| 20260505183503 | 84 | 194 | 4.3 | 10.4 | 0.00 | 0.00 | 0.00 | 72 | 1005.2 |
| 20260505182502 | 84 | 186 | 3.5 | 8.7 | 0.00 | 0.00 | 0.00 | 73 | 1005.1 |
| 20260505182003 | 84 | 189 | 3.5 | 9.6 | 0.00 | 0.00 | 0.00 | 73 | 1005.2 |
| 20260505181502 | 83 | 189 | 4.3 | 11.3 | 0.00 | 0.00 | 0.00 | 73 | 1005.2 |
| 20260505181002 | 84 | 187 | 4.3 | 12.2 | 0.00 | 0.00 | 0.00 | 72 | 1005.2 |
| 20260505180002 | 84 | 198 | 4.3 | 14.8 | 0.00 | 0.00 | 0.00 | 70 | 1005.3 |
| 20260505175502 | 85 | 193 | 3.5 | 7.0 | 0.00 | 0.00 | 0.00 | 70 | 1005.3 |
| 20260505175002 | 85 | 191 | 3.5 | 11.3 | 0.00 | 0.00 | 0.00 | 71 | 1005.3 |
| 20260505174502 | 84 | 192 | 4.3 | 11.3 | 0.00 | 0.00 | 0.00 | 72 | 1005.4 |
| 20260505174002 | 84 | 198 | 4.3 | 11.3 | 0.00 | 0.00 | 0.00 | 72 | 1005.3 |
| 20260505173503 | 84 | 203 | 4.3 | 11.3 | 0.00 | 0.00 | 0.00 | 72 | 1005.2 |
| 20260505173003 | 83 | 200 | 3.5 | 10.4 | 0.00 | 0.00 | 0.00 | 72 | 1005.3 |
| 20260505172502 | 84 | 198 | 2.6 | 11.3 | 0.00 | 0.00 | 0.00 | 72 | 1005.2 |
| 20260505171003 | 82 | 195 | 4.3 | 10.4 | 0.00 | 0.00 | 0.00 | 73 | 1005.4 |
| 20260505170502 | 82 | 200 | 4.3 | 14.8 | 0.00 | 0.00 | 0.00 | 75 | 1005.5 |
| 20260505170002 | 81 | 201 | 4.3 | 14.8 | 0.00 | 0.00 | 0.00 | 75 | 1005.5 |
| 20260505165002 | 81 | 199 | 5.2 | 11.3 | 0.00 | 0.00 | 0.00 | 75 | 1005.4 |
| 20260505164503 | 81 | 197 | 4.3 | 10.4 | 0.00 | 0.00 | 0.00 | 75 | 1005.5 |
| 20260505164002 | 81 | 213 | 4.3 | 9.6 | 0.00 | 0.00 | 0.00 | 75 | 1005.8 |
| 20260505163502 | 81 | 208 | 4.3 | 10.4 | 0.00 | 0.00 | 0.00 | 75 | 1005.5 |
| 20260505163002 | 81 | 193 | 4.3 | 11.3 | 0.00 | 0.00 | 0.00 | 77 | 1005.3 |
| 20260505162503 | 80 | 187 | 5.2 | 13.0 | 0.00 | 0.00 | 0.00 | 76 | 1005.3 |
| 20260505161503 | 79 | 193 | 6.1 | 13.9 | 0.00 | 0.00 | 0.00 | 77 | 1005.2 |
| 20260505161002 | 79 | 190 | 5.2 | 13.9 | 0.00 | 0.00 | 0.00 | 77 | 1005.2 |
| 20260505160502 | 79 | 192 | 5.2 | 12.2 | 0.00 | 0.00 | 0.00 | 78 | 1005.2 |
| 20260505153003 | 78 | 207 | 4.3 | 11.3 | 0.00 | 0.00 | 0.00 | 80 | 1005.4 |
| 20260505152502 | 78 | 200 | 3.5 | 9.6 | 0.00 | 0.00 | 0.00 | 80 | 1005.5 |
| 20260505152003 | 77 | 194 | 5.2 | 14.8 | 0.00 | 0.00 | 0.00 | 81 | 1005.5 |
| 20260505151503 | 76 | 197 | 6.1 | 14.8 | 0.00 | 0.00 | 0.00 | 82 | 1005.4 |
| 20260505151002 | 76 | 194 | 6.1 | 13.0 | 0.00 | 0.00 | 0.00 | 82 | 1005.3 |
| 20260505150503 | 75 | 191 | 5.2 | 13.0 | 0.00 | 0.00 | 0.00 | 82 | 1005.3 |
| 20260505125003 | 72 | 193 | 3.5 | 12.2 | 0.00 | 0.00 | 0.00 | 87 | 1005.1 |
| 20260505124503 | 72 | 199 | 2.6 | 7.8 | 0.00 | 0.00 | 0.00 | 87 | 1004.9 |
| 20260505124003 | 72 | 196 | 3.5 | 9.6 | 0.00 | 0.00 | 0.00 | 87 | 1004.7 |
| 20260505123503 | 72 | 191 | 3.5 | 9.6 | 0.00 | 0.00 | 0.00 | 87 | 1004.7 |
| 20260505123003 | 72 | 195 | 3.5 | 9.6 | 0.00 | 0.00 | 0.00 | 87 | 1004.6 |
| 20260505122502 | 72 | 199 | 3.5 | 7.8 | 0.00 | 0.00 | 0.00 | 87 | 1004.7 |
| 20260505122003 | 72 | 198 | 3.5 | 9.6 | 0.00 | 0.00 | 0.00 | 87 | 1004.6 |
| 20260505121503 | 72 | 192 | 4.3 | 11.3 | 0.00 | 0.00 | 0.00 | 87 | 1004.6 |
| 20260505121003 | 72 | 190 | 4.3 | 11.3 | 0.00 | 0.00 | 0.00 | 87 | 1004.6 |
| 20260505120503 | 72 | 192 | 3.5 | 10.4 | 0.00 | 0.00 | 0.00 | 87 | 1004.5 |
| 20260505120004 | 72 | 186 | 4.3 | 10.4 | 0.00 | 0.00 | 0.00 | 87 | 1004.4 |
| 20260505115503 | 72 | 194 | 4.3 | 10.4 | 0.00 | 0.00 | 0.00 | 87 | 1004.4 |
| 20260505115002 | 72 | 200 | 5.2 | 11.3 | 0.00 | 0.00 | 0.00 | 87 | 1004.4 |
| 20260505114503 | 71 | 194 | 4.3 | 11.3 | 0.00 | 0.00 | 0.00 | 87 | 1004.4 |
| 20260505114003 | 71 | 188 | 4.3 | 7.8 | 0.00 | 0.00 | 0.00 | 87 | 1004.3 |
| 20260505112503 | 72 | 183 | 4.3 | 11.3 | 0.00 | 0.00 | 0.00 | 87 | 1004.3 |
| 20260505112003 | 72 | 186 | 4.3 | 10.4 | 0.00 | 0.00 | 0.00 | 87 | 1004.2 |
| 20260505111503 | 71 | 193 | 4.3 | 10.4 | 0.00 | 0.00 | 0.00 | 87 | 1004.3 |
| 20260505111003 | 71 | 198 | 4.3 | 11.3 | 0.00 | 0.00 | 0.00 | 87 | 1004.3 |
| 20260505102003 | 72 | 187 | 4.3 | 12.2 | 0.00 | 0.00 | 0.00 | 86 | 1004.4 |
| 20260505100503 | 72 | 187 | 5.2 | 10.4 | 0.00 | 0.00 | 0.00 | 86 | 1004.4 |
| 20260505100003 | 72 | 183 | 4.3 | 11.3 | 0.00 | 0.00 | 0.00 | 86 | 1004.5 |
| 20260505094503 | 72 | 185 | 5.2 | 11.3 | 0.00 | 0.00 | 0.00 | 86 | 1004.7 |
| 20260505094003 | 72 | 191 | 5.2 | 12.2 | 0.00 | 0.00 | 0.00 | 86 | 1004.7 |
| 20260505093502 | 72 | 192 | 4.3 | 12.2 | 0.00 | 0.00 | 0.00 | 86 | 1004.7 |
| 20260505093004 | 72 | 190 | 4.3 | 12.2 | 0.00 | 0.00 | 0.00 | 86 | 1004.8 |
| 20260505092503 | 72 | 188 | 4.3 | 12.2 | 0.00 | 0.00 | 0.00 | 86 | 1004.8 |
| 20260505092003 | 72 | 192 | 5.2 | 11.3 | 0.00 | 0.00 | 0.00 | 86 | 1004.7 |
| 20260505091503 | 72 | 194 | 6.1 | 14.8 | 0.00 | 0.00 | 0.00 | 86 | 1004.7 |
| 20260505091003 | 72 | 191 | 5.2 | 14.8 | 0.00 | 0.00 | 0.00 | 86 | 1004.8 |
| 20260505090503 | 72 | 195 | 6.1 | 13.9 | 0.00 | 0.00 | 0.00 | 86 | 1004.7 |
| 20260505090003 | 72 | 197 | 6.1 | 13.0 | 0.00 | 0.00 | 0.00 | 86 | 1004.6 |
| 20260505085503 | 72 | 194 | 5.2 | 13.0 | 0.00 | 0.00 | 0.00 | 86 | 1004.6 |
| 20260505085003 | 72 | 194 | 6.1 | 13.0 | 0.00 | 0.00 | 0.00 | 86 | 1004.5 |
| 20260505084503 | 72 | 196 | 5.2 | 13.0 | 0.00 | 0.00 | 0.00 | 86 | 1004.6 |
| 20260505084003 | 72 | 195 | 6.1 | 14.8 | 0.00 | 0.00 | 0.00 | 86 | 1004.6 |
| 20260505083503 | 72 | 193 | 6.1 | 15.6 | 0.00 | 0.00 | 0.00 | 86 | 1004.6 |
| 20260505083003 | 72 | 198 | 5.2 | 15.6 | 0.00 | 0.00 | 0.00 | 86 | 1004.7 |
| 20260505082003 | 71 | 189 | 5.2 | 14.8 | 0.00 | 0.00 | 0.00 | 86 | 1004.7 |
| 20260505081504 | 71 | 190 | 6.1 | 14.8 | 0.00 | 0.00 | 0.00 | 86 | 1004.7 |
| 20260505080503 | 72 | 188 | 5.2 | 16.5 | 0.00 | 0.00 | 0.00 | 86 | 1004.7 |
| 20260505075503 | 72 | 192 | 6.1 | 16.5 | 0.00 | 0.00 | 0.00 | 86 | 1005.1 |
| 20260505075003 | 72 | 194 | 5.2 | 12.2 | 0.00 | 0.00 | 0.00 | 86 | 1005.1 |
| 20260505074504 | 72 | 196 | 5.2 | 13.0 | 0.00 | 0.00 | 0.00 | 86 | 1005.2 |
| 20260505074003 | 72 | 196 | 6.1 | 14.8 | 0.00 | 0.00 | 0.00 | 86 | 1005.3 |
| 20260505073504 | 72 | 193 | 6.1 | 14.8 | 0.00 | 0.00 | 0.00 | 86 | 1005.5 |
| 20260505073003 | 72 | 191 | 5.2 | 15.6 | 0.00 | 0.00 | 0.00 | 86 | 1005.5 |
| 20260505072503 | 72 | 189 | 5.2 | 15.6 | 0.00 | 0.00 | 0.00 | 85 | 1005.6 |
| 20260505072003 | 72 | 189 | 4.3 | 14.8 | 0.00 | 0.00 | 0.00 | 85 | 1005.6 |
| 20260505071503 | 72 | 190 | 5.2 | 14.8 | 0.00 | 0.00 | 0.00 | 85 | 1005.8 |
| 20260505070503 | 72 | 192 | 5.2 | 20.0 | 0.00 | 0.00 | 0.00 | 85 | 1005.7 |
| 20260505070003 | 72 | 189 | 6.1 | 20.0 | 0.00 | 0.00 | 0.00 | 84 | 1005.8 |
| 20260505065503 | 72 | 189 | 5.2 | 15.6 | 0.00 | 0.00 | 0.00 | 84 | 1005.8 |
| 20260505065003 | 72 | 192 | 5.2 | 13.9 | 0.00 | 0.00 | 0.00 | 84 | 1005.9 |
| 20260505064503 | 72 | 185 | 4.3 | 13.9 | 0.00 | 0.00 | 0.00 | 84 | 1005.9 |
| 20260505064004 | 72 | 178 | 4.3 | 10.4 | 0.00 | 0.00 | 0.00 | 84 | 1006.0 |
| 20260505063503 | 72 | 183 | 4.3 | 10.4 | 0.00 | 0.00 | 0.00 | 84 | 1005.9 |
| 20260505063003 | 72 | 186 | 4.3 | 11.3 | 0.00 | 0.00 | 0.00 | 84 | 1006.1 |
| 20260505062504 | 72 | 187 | 4.3 | 11.3 | 0.00 | 0.00 | 0.00 | 84 | 1005.9 |
| 20260505062003 | 72 | 188 | 3.5 | 10.4 | 0.00 | 0.00 | 0.00 | 83 | 1006.0 |
| 20260505060503 | 72 | 185 | 4.3 | 13.0 | 0.00 | 0.00 | 0.00 | 83 | 1006.2 |
| 20260505060003 | 72 | 189 | 4.3 | 9.6 | 0.00 | 0.00 | 0.00 | 83 | 1006.2 |
| 20260505055504 | 72 | 190 | 4.3 | 9.6 | 0.00 | 0.00 | 0.00 | 82 | 1006.1 |
| 20260505055003 | 72 | 187 | 3.5 | 12.2 | 0.00 | 0.00 | 0.00 | 82 | 1006.2 |
| 20260505054504 | 72 | 186 | 4.3 | 12.2 | 0.00 | 0.00 | 0.00 | 82 | 1006.2 |
| 20260505054003 | 72 | 182 | 4.3 | 12.2 | 0.00 | 0.00 | 0.00 | 82 | 1006.3 |
| 20260505053503 | 72 | 182 | 4.3 | 12.2 | 0.00 | 0.00 | 0.00 | 82 | 1006.3 |
| 20260505053004 | 72 | 181 | 4.3 | 10.4 | 0.00 | 0.00 | 0.00 | 81 | 1006.3 |
| 20260505051504 | 72 | 181 | 3.5 | 10.4 | 0.00 | 0.00 | 0.00 | 81 | 1006.6 |
| 20260505050504 | 72 | 181 | 3.5 | 10.4 | 0.00 | 0.00 | 0.00 | 81 | 1006.5 |
| 20260505041501 | 73 | 171 | 2.6 | 8.7 | 0.00 | 0.00 | 0.00 | 79 | 1006.8 |
| 20260505041002 | 73 | 171 | 2.6 | 6.1 | 0.00 | 0.00 | 0.00 | 79 | 1006.8 |
| 20260505040501 | 73 | 171 | 2.6 | 6.1 | 0.00 | 0.00 | 0.00 | 79 | 1006.9 |
| 20260505040002 | 73 | 173 | 2.6 | 7.0 | 0.00 | 0.00 | 0.00 | 79 | 1006.8 |
| 20260505035501 | 73 | 177 | 2.6 | 7.0 | 0.00 | 0.00 | 0.00 | 78 | 1006.8 |
| 20260505035001 | 73 | 182 | 2.6 | 7.0 | 0.00 | 0.00 | 0.00 | 78 | 1006.6 |
| 20260505034502 | 73 | 175 | 2.6 | 7.0 | 0.00 | 0.00 | 0.00 | 78 | 1006.5 |
| 20260505033001 | 73 | 166 | 2.6 | 6.1 | 0.00 | 0.00 | 0.00 | 77 | 1006.6 |
| 20260505032502 | 73 | 170 | 2.6 | 6.1 | 0.00 | 0.00 | 0.00 | 77 | 1006.6 |
| 20260505032001 | 74 | 181 | 2.6 | 7.0 | 0.00 | 0.00 | 0.00 | 77 | 1006.8 |
| 20260505025501 | 74 | 183 | 1.7 | 7.0 | 0.00 | 0.00 | 0.00 | 76 | 1006.9 |
| 20260505025002 | 74 | 184 | 1.7 | 6.1 | 0.00 | 0.00 | 0.00 | 76 | 1006.8 |
| 20260505024502 | 74 | 187 | 0.9 | 4.3 | 0.00 | 0.00 | 0.00 | 76 | 1006.9 |
| 20260505024001 | 74 | 181 | 0.9 | 3.5 | 0.00 | 0.00 | 0.00 | 75 | 1006.7 |
| 20260505023001 | 74 | 171 | 1.7 | 7.0 | 0.00 | 0.00 | 0.00 | 75 | 1006.4 |
| 20260505022502 | 75 | 169 | 2.6 | 7.0 | 0.00 | 0.00 | 0.00 | 75 | 1006.5 |
| 20260505022001 | 75 | 167 | 2.6 | 7.8 | 0.00 | 0.00 | 0.00 | 74 | 1006.4 |
| 20260505021501 | 75 | 182 | 3.5 | 7.8 | 0.00 | 0.00 | 0.00 | 74 | 1006.4 |
| 20260505021001 | 75 | 188 | 2.6 | 6.1 | 0.00 | 0.00 | 0.00 | 74 | 1006.3 |
| 20260505020502 | 75 | 181 | 2.6 | 7.0 | 0.00 | 0.00 | 0.00 | 74 | 1006.4 |
| 20260505020002 | 75 | 183 | 2.6 | 7.0 | 0.00 | 0.00 | 0.00 | 73 | 1006.4 |
| 20260505015501 | 75 | 179 | 2.6 | 7.8 | 0.00 | 0.00 | 0.00 | 73 | 1006.5 |
| 20260505015002 | 76 | 177 | 2.6 | 7.8 | 0.00 | 0.00 | 0.00 | 73 | 1006.5 |
| 20260505014502 | 76 | 184 | 3.5 | 7.8 | 0.00 | 0.00 | 0.00 | 73 | 1006.5 |
| 20260505014001 | 76 | 187 | 3.5 | 10.4 | 0.00 | 0.00 | 0.00 | 72 | 1006.4 |
| 20260505013502 | 76 | 187 | 3.5 | 11.3 | 0.00 | 0.00 | 0.00 | 72 | 1006.4 |
| 20260505013002 | 76 | 185 | 2.6 | 11.3 | 0.00 | 0.00 | 0.00 | 72 | 1006.5 |
| 20260505012501 | 76 | 175 | 3.5 | 7.0 | 0.00 | 0.00 | 0.00 | 72 | 1006.5 |
| 20260505012002 | 76 | 183 | 3.5 | 9.6 | 0.00 | 0.00 | 0.00 | 71 | 1006.4 |
| 20260505011501 | 76 | 186 | 3.5 | 9.6 | 0.00 | 0.00 | 0.00 | 71 | 1006.4 |
| 20260505010502 | 77 | 179 | 2.6 | 7.0 | 0.00 | 0.00 | 0.00 | 71 | 1006.4 |
| 20260505005502 | 77 | 190 | 3.5 | 8.7 | 0.00 | 0.00 | 0.00 | 70 | 1006.4 |
| 20260505005001 | 77 | 185 | 3.5 | 8.7 | 0.00 | 0.00 | 0.00 | 70 | 1006.4 |
| 20260505004502 | 78 | 188 | 4.3 | 8.7 | 0.00 | 0.00 | 0.00 | 69 | 1006.6 |
| 20260505004001 | 78 | 185 | 3.5 | 11.3 | 0.00 | 0.00 | 0.00 | 69 | 1006.5 |
| 20260505003001 | 79 | 187 | 4.3 | 12.2 | 0.00 | 0.00 | 0.00 | 67 | 1006.3 |